Regional Weather Roundup
Issued by NWS San Diego, CA

Home | Current Version | Previous Version | Text Only | Print | Product List | Glossary On
Versions: 1 2 3 4 5 6 7 8 9 10 11 12 13 14 15 16 17 18 19 20 21 22 23 24 25 26 27 28 29 30 31 32 33 34 35 36 37 38 39 40 41 42 43 44 45 46 47 48 49 50
000
ASUS46 KSGX 021011
RWRSGX

SAN DIEGO HOURLY WEATHER ROUNDUP
NATIONAL WEATHER SERVICE SAN DIEGO CA
300 AM PDT WED SEP 02 2015

NOTE: "FAIR" INDICATES FEW OR NO CLOUDS BELOW 12,000 FEET WITH NO
SIGNIFICANT WEATHER AND/OR OBSTRUCTIONS TO VISIBILITY.

CAZ042-043-060-061-PZZ750-775-021100-

GREATER SAN DIEGO AREA

CITY           SKY/WX    TMP DP  RH WIND       PRES   REMARKS
LINDBERGH FLD  CLOUDY    69  60  73 CALM      29.97F
POINT LOMA       N/A     66  58  75 SE3         N/A
NATIONAL CITY    N/A     69  63  80 CALM      29.96F
CHULA VISTA      N/A     68  63  83 CALM      29.89F
IMPERIAL BEACH CLOUDY   N/A N/A N/A CALM      29.96F
BROWN FIELD    CLOUDY    67  61  81 CALM      29.96F
MIRAMAR MCAS   CLOUDY    71  59  65 SW3       29.96F
MONTGOMERY FLD CLOUDY    68  60  75 W3        29.97S

$$

NORTH SAN DIEGO COUNTY

CITY           SKY/WX    TMP DP  RH WIND       PRES   REMARKS
CAMP PENDLETON CLOUDY    70  61  73 CALM      29.96S
OCEANSIDE AP   CLOUDY    70  61  73 SW6       29.95S
OCEANSIDE HBR    N/A     70  65  84 S3        29.98S
VISTA            N/A     68  63  82 CALM      29.94S
CARLSBAD       CLOUDY    69  62  78 SW6       29.95F
DEL MAR          N/A     68  63  84 CALM      29.98F
LA JOLLA SCRIP   N/A    N/A N/A N/A CALM      29.93S
FALLBROOK        N/A     68  66  93 CALM      29.95S
ESCONDIDO        N/A     68  62  80 S2        29.97F
SAN MARCOS       N/A     67  62  81 CALM      29.93F
POWAY            N/A     67  62  81 CALM      29.97S

$$

EAST SAN DIEGO COUNTY

CITY           SKY/WX    TMP DP  RH WIND       PRES   REMARKS
RAMONA         CLOUDY    63  59  87 CALM      29.99S
SANTEE LAKES     N/A     68  62  80 CALM      29.94F
LA MESA          N/A     66  61  83 CALM      29.89S
JAMUL            N/A     65  61  87 CALM      29.95F
DESCANSO N       N/A     57  23  26 E3        29.82S
CAMPO            N/A     48  38  68 NE8       29.98F

$$

ORANGE COUNTY AND THE LOS ANGELES BASIN

CITY           SKY/WX    TMP DP  RH WIND       PRES   REMARKS
JOHN WAYNE AP  CLOUDY    70  62  76 CALM      29.95F
LAKE FOREST FR   N/A     66  58  77 CALM      29.85F
SANTA ANA        N/A     71  63  74 CALM      29.90F
HUNTINGTON BCH   N/A     69  64  83 CALM      29.97F
LOS ALAMITOS   CLOUDY    70  62  76 SE1       29.95F
FULLERTON      CLOUDY    71  62  73 S3        29.94F
LONG BEACH     CLOUDY    71  61  70 S5        29.95F
L.A. AP        CLOUDY    70  62  76 CALM      29.95F
L.A. DOWNTOWN  CLOUDY    69  62  78 CALM      29.94F

$$

THE INLAND EMPIRE

CITY           SKY/WX    TMP DP  RH WIND       PRES   REMARKS
CORONA         CLOUDY    65  61  87 CALM      29.97S
CHINO          CLOUDY    69  61  75 SW3       29.98S
ONTARIO        CLOUDY    67  60  78 W7        29.97S
RIVERSIDE AP   CLOUDY    67  60  78 W3        29.97F
MORENO VALLEY    N/A     63  62  96 CALM      29.94F
MARCH ARB      CLOUDY    64  62  93 W3        29.99R
HORSETHIEF CYN   N/A     63  55  76 CALM      29.98F
PERRIS           N/A     62  61  96 SE3       30.00S
MENIFEE          N/A     63  62  94 CALM      30.04S
HEMET EAST       N/A     60  55  83 CALM      29.97S
FRENCH VALLEY  CLOUDY    64  61  88 CALM      29.99S
TEMECULA         N/A     66  62  88 S3        29.95S

$$

SAN BERNARDINO AND RIVERSIDE COUNTY MOUNTAINS

CITY           SKY/WX    TMP DP  RH WIND       PRES   REMARKS
BIG BEAR AP    FAIR      46  30  53 CALM      30.21F
ANGELUS OAKS     N/A     54  37  51 CALM      29.80S
PINE COVE        N/A     62  26  25 CALM      29.85F

$$

SOUTHERN DESERT INCLUDING THE COACHELLA VALLEY

CITY           SKY/WX    TMP DP  RH WIND       PRES   REMARKS
PALM SPRINGS   FAIR      80  55  42 CALM      29.84S
THOUSAND PALMS   N/A     83  52  34 N10       29.80R
PALM DESERT      N/A     79  59  49 CALM        N/A
THERMAL        FAIR      82  54  37 NW6       29.78S
BLYTHE         FAIR      84  60  44 S6        29.82R
IMPERIAL AP    FAIR      86  50  28 CALM      29.78S
EL CENTRO NAS  FAIR      82  38  20 W5        29.80S
YUMA AZ        FAIR      86  68  54 SE12      29.80S

$$

UPPER DESERT

CITY           SKY/WX    TMP DP  RH WIND       PRES   REMARKS
VICTORVILLE AP FAIR      64  52  63 S5        29.99S
HESPERIA         N/A     67  52  57 NW2       29.95S
APPLE VALLEY     N/A     69  45  41 SW2       30.04S
PALMDALE       FAIR      62  55  77 SE10      29.97S
LANCASTER      FAIR      69  40  34 W8        29.96F
EDWARDS AFB    FAIR      68  44  41 S12       29.94R
DAGGETT        FAIR     N/A N/A N/A W10       29.93S
29 PALMS N     FAIR      78  54  43 SE3       29.97S
NEEDLES        FAIR      91  52  26 SW13      29.83S

$$

REGIONAL REPORTS

CITY           SKY/WX    TMP DP  RH WIND       PRES   REMARKS
SANTA BARBARA  CLOUDY    65  61  87 SE3       29.93S
SANDBERG       FAIR      63  25  23 S10       30.08F
LAS VEGAS NV   MOCLDY    86  55  34 S7        29.86R
PHOENIX AZ     CLOUDY    89  64  43 E8        29.89R THUNDER
TIJUANA        CLOUDY    68  57  68 CALM      29.99S
ENSENADA NW      N/A     69  32  25 W3        29.93F

$$

OFFSHORE ISLANDS

CITY           SKY/WX    TMP DP  RH WIND       PRES   REMARKS
CATALINA ARPT  CLOUDY    61  59  93 E6        29.99S
SAN NICOLAS IS CLOUDY   N/A N/A N/A SW3       29.95F

$$

MARINE AND OFFSHORE BUOY REPORTS

STATION/POSITION SKY/WX   TEMP    WIND        PRES    SWELL
                          AIR SEA DIR/SP/G            HT/PER/DIR
                          (F)     (DEG/KT/KT) (MB)    (FT/S/D)
TANNER BANKS               67 69  290/ 10/ 12 1014.3F   7/230/11
S CLEMENTE BASIN           66 71  360/  2/  4 1014.2F   5/230/11
SO. S. ROSA ISLA           64 67  320/  8/ 10 1012.9R   7/11
W. S. BARBARA CH           65 69  320/ 10/ 10 1012.7S   7/270/13
M. S. BARBARA CH           65 68  220/  4/  6 1013.9F
S. MONICA BASIN            67 71  180/  6/  8 1014.0S   3/210/13
S PEDRO CHANNEL               73                N/A     2/250/14
DANA POINT                    74                N/A     3/210/14
OCEANSIDE OFFSHR              74                N/A     3/210/13
TORREY PINES OTR              74                N/A     3/220/12
LA JOLLA 1                 69 67  190/  7/  8 1014.5F
MISSION BAY BUOY              74                N/A     3/220/12
SAN DIEGO BAY                 77              1015.1F
POINT LOMA SOUTH              72                N/A     3/250/11

$$



USA.gov is the U.S. government's official web portal to all federal, state and local government web resources and services.